[[{"header":{"parameterUnit":"m.s-1","parameterCategory":1,"la1":30.2991,"la2":30.254,"lo1":-89.0895,"lo2":-89.0444,"dy":0.0017,"dx":0.0017,"nx":28,"ny":28,"refTime":"2024-08-19T03:00:00:Z","depth":0,"parameterNumber":2,"parameterNumberName":"U-component_of_WINDS"},"data":[0,0,0,0,0,0,0,0,0,0,0,0,0,0,0,0,0,0,0,0,0,0,0,0,0,0,0,0,0,0,0,0,0,0,0,0,0,0,0,0,0,0,0,0,0,0,0,0,0,0,0,0,0,0,0,0,0,0,5.5497,5.5499,0,5.5623,5.5625,5.5626,5.5507,5.5503,5.5498,5.5493,5.5627,5.5635,5.5643,0,0,0,0,0,0,0,0,0,0,0,0,0,5.5157,5.5164,5.5497,5.5499,5.55,5.5623,5.5625,5.5626,5.5508,5.5502,5.5497,5.5491,5.5624,5.5634,5.5644,0,0,0,0,0,0,0,0,0,0,0,0,0,5.5297,5.5166,5.5497,5.5456,5.5454,5.5623,5.5625,5.5627,5.5509,5.5502,5.5495,5.5488,5.5621,5.5633,5.5645,5.5862,0,0,5.5682,5.5687,0,0,0,0,0,0,0,0,5.5289,5.5309,5.546,5.5459,5.5457,5.5542,5.5554,5.5706,5.5511,5.5489,5.5493,5.5485,5.5605,5.5618,5.5657,5.5868,5.5874,5.5683,5.569,5.5695,5.5698,0,0,0,0,0,0,0,5.5279,5.5303,5.5547,5.5463,5.5461,5.5432,5.5444,5.5582,5.5585,5.549,5.5482,5.5498,5.5603,5.5646,5.566,5.5876,5.5682,5.5693,5.57,5.5705,5.627,5.6277,0,0,0,0,0,0,5.5273,5.5296,5.5543,5.5551,5.5353,5.5444,5.5458,5.5522,5.5584,5.5586,5.5504,5.5492,5.5629,5.5646,5.5664,5.5921,5.5695,5.5706,5.5713,5.6262,5.6272,5.628,0,0,0,0,0,0,5.5267,5.5297,5.5538,5.5421,5.545,5.5458,5.5531,5.5528,5.5571,5.5594,5.5594,5.5547,5.5624,5.5647,5.5813,5.5924,5.5712,5.5723,5.6253,5.6265,5.6276,5.6438,0,0,0,0,0,0,5.5257,5.5295,5.5377,5.5424,5.5456,5.5685,5.5538,5.5536,5.5592,5.5578,5.5635,5.5638,5.562,5.5796,5.5825,5.5937,5.5732,5.6243,5.6258,5.6272,5.6422,5.6453,5.648,0,0,0,0,0,5.5246,5.5419,5.5382,5.5412,5.5559,5.5691,5.571,5.5685,5.5601,5.5684,5.5698,5.5636,5.5907,5.5814,5.5846,5.5963,5.6236,5.6254,5.6271,5.641,5.6447,5.6479,0,0,0,0,0,0,5.5387,5.5424,5.5383,5.5577,5.5632,5.5671,5.5775,5.5726,5.5807,5.579,5.5757,5.5771,5.5946,5.5971,5.5866,5.6175,5.6058,5.6083,5.6153,5.6189,5.6217,5.6207,5.5742,0,0,0,0,0,5.544,5.5543,5.5571,5.5739,5.5768,5.5767,5.5824,5.58,5.5856,5.5879,5.5905,5.5963,5.606,5.6126,5.6218,5.6425,5.6436,5.6522,5.655,5.6574,5.6596,5.6706,5.6744,5.6338,5.6337,5.6337,0,0,5.5552,5.5585,5.5653,5.5768,5.5807,5.5916,5.5787,5.5908,5.5988,5.5897,5.6055,5.6077,5.6139,5.6326,5.641,5.6352,5.671,5.6596,5.6615,5.6624,5.6728,5.6766,5.6801,5.635,5.6347,5.6346,0,0,5.5811,5.5847,5.5989,5.6031,5.6092,5.6089,5.6124,5.6171,5.6181,5.6338,5.6272,5.6367,5.6537,5.6584,5.663,5.6905,5.685,5.6936,5.7086,5.7194,5.7226,5.7254,5.7351,5.7387,5.6957,5.6958,5.6958,0,5.5942,5.6102,5.607,5.6194,5.6247,5.6168,5.6312,5.6355,5.6444,5.6482,5.6415,5.6625,5.6662,5.6858,5.6925,5.6966,5.7004,5.6929,5.7224,5.7252,5.7278,5.737,5.7407,5.6968,5.6967,5.6965,5.6965,0,5.626,5.6372,5.648,5.6565,5.663,5.6764,5.6753,5.6823,5.6793,5.6798,5.6959,5.7,5.7097,5.7142,5.7115,5.7335,5.7297,5.7228,5.711,5.7327,5.7413,5.7448,5.6982,5.6978,5.6975,5.6973,0,0,5.6612,5.6676,5.6716,5.6753,5.6814,5.69,5.7031,5.7124,5.7184,5.7248,5.7357,5.7501,5.7437,5.7489,5.7467,5.7562,5.7776,5.7481,5.7482,5.7533,5.8019,5.807,5.8111,5.7739,5.7746,5.7751,5.8013,0,5.6872,5.7097,5.7071,5.7287,5.7389,5.7315,5.7428,5.7478,5.7486,5.7575,5.7584,5.7687,5.7595,5.7626,5.7716,5.773,5.7873,5.7711,5.784,5.7845,5.7826,5.8156,5.8211,5.8456,5.8047,5.8053,5.8057,0,5.7205,5.7278,5.7503,5.7546,5.7588,5.7691,5.7774,5.7859,5.7914,5.7913,5.7971,5.7932,5.8063,5.7942,5.8123,5.8014,5.8065,5.808,5.8089,5.8099,5.7964,5.8175,5.8534,5.8571,5.811,5.8106,5.8102,0,5.7438,5.7593,5.7747,5.7781,5.7836,5.7909,5.7936,5.7983,5.8041,5.8114,5.8151,5.8239,5.8288,5.8357,5.8342,5.8256,5.8527,5.8405,5.853,5.853,5.859,5.8586,5.8961,5.8625,5.8624,5.8624,5.8623,0,5.773,5.7871,5.7852,5.7947,5.8102,5.8071,5.8226,5.8243,5.8286,5.8383,5.8325,5.8418,5.8393,5.8485,5.8475,5.8625,5.8648,5.8651,5.8646,5.8656,5.8655,5.8689,5.8671,5.8633,5.8631,5.8629,5.8628,0,5.8017,5.801,5.8172,5.821,5.8223,5.8335,5.8368,5.8457,5.846,5.8584,5.8611,5.8616,5.8721,5.8713,5.8832,5.8825,5.9011,5.8987,5.8992,5.8986,5.9111,5.9099,5.952,5.9573,5.9203,5.9207,5.921,0,5.8203,5.8309,5.8357,5.8417,5.8448,5.8546,5.8604,5.8578,5.864,5.871,5.8791,5.8891,5.8968,5.914,5.9155,5.9245,5.9222,5.9363,5.9236,5.9241,5.9223,5.9216,5.9226,5.9389,5.9393,5.9396,5.9399,0,5.8535,5.8526,5.861,5.8694,5.8764,5.8829,5.8888,5.8941,5.892,5.8994,5.9099,5.916,5.928,5.9379,5.9465,5.9492,5.9443,5.9439,5.9472,5.9483,5.9481,5.9482,5.9059,5.9429,5.9426,5.9424,5.9422,5.9421,5.8777,5.8866,5.8914,5.901,5.9051,5.9107,5.9192,5.9204,5.9292,5.9386,5.9366,5.9485,5.9536,5.9645,5.9681,5.9774,5.9723,5.9772,5.9785,5.9797,5.981,5.9466,5.979,5.9789,5.9788,5.9788,5.9787,0,5.9104,5.913,5.9219,5.9302,5.9377,5.9322,5.9384,5.9451,5.9556,5.9607,5.9684,5.9805,5.99,5.9922,6.0014,6.0084,6.0063,6.0109,6.0103,6.011,5.9851,5.9813,6.0124,6.0124,6.0123,6.0123,6.0123,6.0123,5.9283,5.9432,5.9428,5.9597,5.9622,5.9736,5.9776,5.9828,5.9868,6.0005,6.0083,6.0096,6.0136,6.0229,6.0315,6.0318,6.0354,6.0409,6.0404,6.0162,6.0128,6.0096,6.0059,6.0417,6.0418,6.0654,6.0656,6.0658]},{"header":{"parameterUnit":"m.s-1","parameterCategory":1,"la1":30.2991,"la2":30.254,"lo1":-89.0895,"lo2":-89.0444,"dy":0.0017,"dx":0.0017,"nx":28,"ny":28,"refTime":"2024-08-19T03:00:00:Z","depth":0,"parameterNumber":3,"parameterNumberName":"V-component_of_WINDS"},"data":[0,0,0,0,0,0,0,0,0,0,0,0,0,0,0,0,0,0,0,0,0,0,0,0,0,0,0,0,0,0,0,0,0,0,0,0,0,0,0,0,0,0,0,0,0,0,0,0,0,0,0,0,0,0,0,0,0,0,1.6403,1.6404,0,1.6443,1.6443,1.6444,1.6414,1.6412,1.6411,1.641,1.645,1.6452,1.6454,0,0,0,0,0,0,0,0,0,0,0,0,0,1.6301,1.6303,1.6403,1.6404,1.6404,1.6443,1.6443,1.6444,1.6414,1.6412,1.6411,1.6409,1.6449,1.6452,1.6455,0,0,0,0,0,0,0,0,0,0,0,0,0,1.6343,1.6304,1.6403,1.6394,1.6394,1.6443,1.6443,1.6444,1.6414,1.6412,1.641,1.6409,1.6448,1.6452,1.6455,1.6515,0,0,1.6465,1.6467,0,0,0,0,0,0,0,0,1.6341,1.6347,1.6395,1.6395,1.6394,1.6421,1.6422,1.6468,1.6415,1.6406,1.641,1.6408,1.6442,1.6446,1.6457,1.6517,1.6519,1.6466,1.6468,1.6469,1.647,0,0,0,0,0,0,0,1.6338,1.6345,1.6419,1.6396,1.6395,1.6388,1.6391,1.643,1.6435,1.6407,1.6405,1.641,1.6441,1.6454,1.6458,1.6519,1.6466,1.6469,1.6471,1.6472,1.6629,1.6631,0,0,0,0,0,0,1.6336,1.6343,1.6418,1.642,1.6362,1.6391,1.6395,1.6415,1.6434,1.6435,1.6412,1.6409,1.6449,1.6454,1.646,1.653,1.6469,1.6472,1.6474,1.6626,1.6629,1.6631,0,0,0,0,0,0,1.6334,1.6343,1.6416,1.6381,1.639,1.6395,1.6417,1.6416,1.6429,1.6438,1.6438,1.6424,1.6448,1.6455,1.6501,1.6531,1.6474,1.6477,1.6624,1.6627,1.663,1.6673,0,0,0,0,0,0,1.6331,1.6343,1.6366,1.6382,1.6392,1.6458,1.6419,1.6419,1.6435,1.6431,1.6449,1.6451,1.6447,1.6496,1.6505,1.6535,1.648,1.6621,1.6625,1.6629,1.6669,1.6677,1.6684,0,0,0,0,0,1.6328,1.6377,1.6367,1.6376,1.6421,1.646,1.6465,1.646,1.6438,1.6461,1.6466,1.645,1.6527,1.6501,1.651,1.6542,1.6619,1.6624,1.6629,1.6666,1.6676,1.6684,0,0,0,0,0,0,1.6364,1.6379,1.6368,1.6424,1.6441,1.6454,1.6484,1.6471,1.6495,1.649,1.6483,1.6487,1.6536,1.6544,1.6515,1.6601,1.6569,1.6576,1.6594,1.6604,1.6611,1.6609,1.6483,0,0,0,0,0,1.6379,1.6409,1.642,1.6468,1.6477,1.6479,1.6495,1.649,1.6507,1.6514,1.6523,1.654,1.6567,1.6586,1.6612,1.667,1.6673,1.6696,1.6704,1.671,1.6716,1.6746,1.6756,1.6647,1.6647,1.6647,0,0,1.6409,1.6421,1.644,1.6475,1.6488,1.6519,1.6485,1.652,1.6542,1.6519,1.6564,1.657,1.6589,1.6641,1.6664,1.6649,1.6747,1.6716,1.6721,1.6724,1.6752,1.6762,1.6772,1.665,1.6649,1.6649,0,0,1.648,1.6492,1.6533,1.6546,1.6565,1.6566,1.6576,1.6591,1.6595,1.6639,1.6622,1.6649,1.6697,1.6711,1.6724,1.6799,1.6784,1.6807,1.6848,1.6877,1.6886,1.6893,1.6919,1.6929,1.6813,1.6813,1.6813,0,1.6515,1.6562,1.6555,1.6591,1.6607,1.6587,1.6628,1.664,1.6667,1.6678,1.666,1.672,1.6731,1.6785,1.6803,1.6815,1.6825,1.6805,1.6885,1.6892,1.6899,1.6924,1.6934,1.6816,1.6816,1.6815,1.6815,0,1.6604,1.6636,1.6667,1.6693,1.6712,1.675,1.6749,1.6769,1.6761,1.6764,1.6809,1.6821,1.6849,1.6861,1.6855,1.6915,1.6904,1.6886,1.6854,1.6913,1.6936,1.6945,1.682,1.6819,1.6818,1.6817,0,0,1.67,1.6721,1.6733,1.6744,1.6763,1.6787,1.6824,1.6851,1.6868,1.6887,1.6917,1.6958,1.694,1.6955,1.695,1.6976,1.7033,1.6954,1.6954,1.6968,1.7099,1.7113,1.7124,1.7024,1.7025,1.7027,1.7097,0,1.6772,1.6836,1.6831,1.6891,1.6921,1.6902,1.6933,1.6948,1.6951,1.6976,1.6979,1.7008,1.6983,1.6992,1.7017,1.7021,1.7059,1.7016,1.7051,1.7053,1.7047,1.7136,1.7151,1.7217,1.7106,1.7108,1.7109,0,1.6864,1.6886,1.695,1.6963,1.6975,1.7004,1.7028,1.7052,1.7068,1.7068,1.7084,1.7074,1.711,1.7078,1.7127,1.7097,1.7111,1.7115,1.7118,1.7121,1.7085,1.7141,1.7238,1.7248,1.7123,1.7122,1.7121,0,1.6927,1.6972,1.7016,1.7026,1.7043,1.7064,1.7072,1.7086,1.7102,1.7123,1.7133,1.7157,1.7171,1.719,1.7186,1.7163,1.7236,1.7203,1.7237,1.7237,1.7254,1.7253,1.7354,1.7263,1.7263,1.7263,1.7262,0,1.7008,1.7048,1.7044,1.7071,1.7115,1.7108,1.715,1.7156,1.7168,1.7195,1.718,1.7206,1.7199,1.7225,1.7222,1.7263,1.7269,1.727,1.7269,1.7271,1.7271,1.728,1.7275,1.7265,1.7265,1.7264,1.7264,0,1.7086,1.7086,1.7132,1.7144,1.7148,1.7179,1.7189,1.7214,1.7215,1.725,1.7257,1.7259,1.7288,1.7286,1.7319,1.7317,1.7367,1.736,1.7362,1.736,1.7394,1.7391,1.7504,1.7518,1.7419,1.742,1.7421,0,1.7138,1.7167,1.7182,1.7199,1.7209,1.7237,1.7253,1.7247,1.7264,1.7284,1.7306,1.7334,1.7355,1.7402,1.7406,1.743,1.7424,1.7462,1.7428,1.7429,1.7424,1.7422,1.7425,1.7469,1.747,1.7471,1.7472,0,1.7229,1.7227,1.7251,1.7275,1.7295,1.7314,1.733,1.7345,1.7341,1.7361,1.739,1.7407,1.7439,1.7466,1.7489,1.7497,1.7484,1.7482,1.7491,1.7494,1.7494,1.7494,1.738,1.748,1.7479,1.7479,1.7478,1.7478,1.7295,1.732,1.7334,1.7362,1.7374,1.7389,1.7413,1.7417,1.7441,1.7468,1.7462,1.7495,1.7509,1.7538,1.7548,1.7573,1.7559,1.7572,1.7576,1.7579,1.7583,1.749,1.7577,1.7577,1.7577,1.7576,1.7576,0,1.7385,1.7393,1.7418,1.7442,1.7463,1.7448,1.7466,1.7484,1.7513,1.7528,1.7549,1.7582,1.7608,1.7613,1.7638,1.7657,1.7651,1.7663,1.7662,1.7663,1.7594,1.7583,1.7667,1.7667,1.7667,1.7667,1.7667,1.7667,1.7434,1.7476,1.7475,1.7522,1.753,1.7562,1.7573,1.7587,1.7598,1.7636,1.7657,1.7661,1.7671,1.7696,1.7719,1.772,1.7729,1.7744,1.7743,1.7678,1.7668,1.766,1.765,1.7746,1.7747,1.781,1.7811,1.7811]}]]